date,time,SUV Intensity [MED/Hr],UV Index,Daily total [MED],Since Last [MED]
26/07/2022,00:10:52,0.000,0.0,0.0,0.0
26/07/2022,00:12:01,0.000,0.0,0.0,0.0
26/07/2022,00:12:52,0.000,0.0,0.0,0.0
26/07/2022,00:13:52,0.000,0.0,0.0,0.0
26/07/2022,00:14:53,0.000,0.0,0.0,0.0
26/07/2022,00:15:52,0.000,0.0,0.0,0.0
26/07/2022,00:16:52,0.000,0.0,0.0,0.0
26/07/2022,00:17:53,0.000,0.0,0.0,0.0
26/07/2022,00:18:52,0.000,0.0,0.0,0.0
26/07/2022,00:19:52,0.000,0.0,0.0,0.0
26/07/2022,00:20:52,0.000,0.0,0.0,0.0
26/07/2022,00:21:52,0.000,0.0,0.0,0.0
26/07/2022,00:22:52,0.000,0.0,0.0,0.0
26/07/2022,00:23:52,0.000,0.0,0.0,0.0
26/07/2022,00:24:53,0.000,0.0,0.0,0.0
26/07/2022,00:25:52,0.000,0.0,0.0,0.0
26/07/2022,00:27:09,0.000,0.0,0.0,0.0
26/07/2022,00:28:53,0.000,0.0,0.0,0.0
26/07/2022,00:29:54,0.000,0.0,0.0,0.0
26/07/2022,00:31:01,0.000,0.0,0.0,0.0
26/07/2022,00:31:51,0.000,0.0,0.0,0.0
26/07/2022,00:32:53,0.000,0.0,0.0,0.0
26/07/2022,00:33:52,0.000,0.0,0.0,0.0
26/07/2022,00:34:52,0.000,0.0,0.0,0.0
26/07/2022,00:35:52,0.000,0.0,0.0,0.0
26/07/2022,00:36:52,0.000,0.0,0.0,0.0
26/07/2022,00:37:53,0.000,0.0,0.0,0.0
26/07/2022,00:38:52,0.000,0.0,0.0,0.0
26/07/2022,00:39:53,0.000,0.0,0.0,0.0
26/07/2022,00:40:52,0.000,0.0,0.0,0.0
26/07/2022,00:41:52,0.000,0.0,0.0,0.0
26/07/2022,00:42:52,0.000,0.0,0.0,0.0
26/07/2022,00:43:53,0.000,0.0,0.0,0.0
26/07/2022,00:44:52,0.000,0.0,0.0,0.0
26/07/2022,00:46:01,0.000,0.0,0.0,0.0
26/07/2022,00:46:52,0.000,0.0,0.0,0.0
26/07/2022,00:47:53,0.000,0.0,0.0,0.0
26/07/2022,00:48:52,0.000,0.0,0.0,0.0
26/07/2022,00:49:52,0.000,0.0,0.0,0.0
26/07/2022,00:50:52,0.000,0.0,0.0,0.0
26/07/2022,00:51:52,0.000,0.0,0.0,0.0
26/07/2022,00:52:53,0.000,0.0,0.0,0.0
26/07/2022,00:53:52,0.000,0.0,0.0,0.0
26/07/2022,00:54:52,0.000,0.0,0.0,0.0
26/07/2022,00:55:53,0.000,0.0,0.0,0.0
26/07/2022,00:57:00,0.000,0.0,0.0,0.0
26/07/2022,00:57:53,0.000,0.0,0.0,0.0
26/07/2022,00:58:53,0.000,0.0,0.0,0.0
26/07/2022,00:59:52,0.000,0.0,0.0,0.0
26/07/2022,01:00:52,0.000,0.0,0.0,0.0
26/07/2022,01:01:52,0.000,0.0,0.0,0.0
26/07/2022,01:02:52,0.000,0.0,0.0,0.0
26/07/2022,01:03:52,0.000,0.0,0.0,0.0
26/07/2022,01:04:52,0.000,0.0,0.0,0.0
26/07/2022,01:06:00,0.000,0.0,0.0,0.0
26/07/2022,01:06:52,0.000,0.0,0.0,0.0
26/07/2022,01:07:52,0.000,0.0,0.0,0.0
26/07/2022,01:08:55,0.001,0.0,0.0,0.0
26/07/2022,01:09:52,0.001,0.0,0.0,0.0
26/07/2022,01:10:52,0.001,0.0,0.0,0.0
26/07/2022,01:11:52,0.000,0.0,0.0,0.0
26/07/2022,01:12:52,0.000,0.0,0.0,0.0
26/07/2022,01:13:53,0.000,0.0,0.0,0.0
26/07/2022,01:14:52,0.001,0.0,0.0,0.0
26/07/2022,01:15:52,0.001,0.0,0.0,0.0
26/07/2022,01:16:52,0.000,0.0,0.0,0.0
26/07/2022,01:17:53,0.000,0.0,0.0,0.0
26/07/2022,01:18:52,0.000,0.0,0.0,0.0
26/07/2022,01:19:52,0.001,0.0,0.0,0.0
26/07/2022,01:21:01,0.000,0.0,0.0,0.0
26/07/2022,01:21:51,0.000,0.0,0.0,0.0
26/07/2022,01:22:53,0.000,0.0,0.0,0.0
26/07/2022,01:23:52,0.001,0.0,0.0,0.0
26/07/2022,01:24:52,0.001,0.0,0.0,0.0
26/07/2022,01:25:52,0.000,0.0,0.0,0.0
26/07/2022,01:26:52,0.000,0.0,0.0,0.0
26/07/2022,01:27:52,0.000,0.0,0.0,0.0
26/07/2022,01:28:53,0.000,0.0,0.0,0.0
26/07/2022,01:29:53,0.001,0.0,0.0,0.0
26/07/2022,01:30:53,0.000,0.0,0.0,0.0
26/07/2022,01:31:52,0.001,0.0,0.0,0.0
26/07/2022,01:32:53,0.000,0.0,0.0,0.0
26/07/2022,01:33:52,0.000,0.0,0.0,0.0
26/07/2022,01:34:52,0.000,0.0,0.0,0.0
26/07/2022,01:36:01,0.000,0.0,0.0,0.0
26/07/2022,01:36:52,0.000,0.0,0.0,0.0
26/07/2022,01:37:53,0.000,0.0,0.0,0.0
26/07/2022,01:38:53,0.001,0.0,0.0,0.0
26/07/2022,01:39:52,0.001,0.0,0.0,0.0
26/07/2022,01:40:52,0.000,0.0,0.0,0.0
26/07/2022,01:42:01,0.000,0.0,0.0,0.0
26/07/2022,01:42:52,0.000,0.0,0.0,0.0
26/07/2022,01:43:52,0.001,0.0,0.0,0.0
26/07/2022,01:45:00,0.000,0.0,0.0,0.0
26/07/2022,01:45:53,0.000,0.0,0.0,0.0
26/07/2022,01:46:52,0.000,0.0,0.0,0.0
26/07/2022,01:47:52,0.000,0.0,0.0,0.0
26/07/2022,01:48:53,0.000,0.0,0.0,0.0
26/07/2022,01:49:52,0.000,0.0,0.0,0.0
26/07/2022,01:50:52,0.000,0.0,0.0,0.0
26/07/2022,01:51:52,0.000,0.0,0.0,0.0
26/07/2022,01:52:53,0.000,0.0,0.0,0.0
26/07/2022,01:53:52,-0.000,0.0,0.0,0.0
26/07/2022,01:54:52,0.000,0.0,0.0,0.0
26/07/2022,01:55:53,0.000,0.0,0.0,0.0
26/07/2022,01:56:52,0.000,0.0,0.0,0.0
26/07/2022,01:57:52,0.000,0.0,0.0,0.0
26/07/2022,01:58:52,0.000,0.0,0.0,0.0
26/07/2022,01:59:53,0.000,0.0,0.0,0.0
26/07/2022,02:00:53,0.000,0.0,0.0,0.0
26/07/2022,02:01:53,0.001,0.0,0.0,0.0
26/07/2022,02:03:00,0.000,0.0,0.0,0.0
26/07/2022,02:03:53,0.000,0.0,0.0,0.0
26/07/2022,02:04:52,0.000,0.0,0.0,0.0
26/07/2022,02:05:53,0.000,0.0,0.0,0.0
26/07/2022,02:06:52,0.000,0.0,0.0,0.0
26/07/2022,02:07:53,0.000,0.0,0.0,0.0
26/07/2022,02:09:00,0.000,0.0,0.0,0.0
26/07/2022,02:09:53,0.000,0.0,0.0,0.0
26/07/2022,02:10:53,0.000,0.0,0.0,0.0
26/07/2022,02:12:01,0.000,0.0,0.0,0.0
26/07/2022,02:12:53,0.000,0.0,0.0,0.0
26/07/2022,02:13:53,0.000,0.0,0.0,0.0
26/07/2022,02:14:53,0.001,0.0,0.0,0.0
26/07/2022,02:15:53,0.000,0.0,0.0,0.0
26/07/2022,02:16:52,0.001,0.0,0.0,0.0
26/07/2022,02:17:53,0.001,0.0,0.0,0.0
26/07/2022,02:18:53,0.001,0.0,0.0,0.0
26/07/2022,02:19:53,0.000,0.0,0.0,0.0
26/07/2022,02:20:52,0.001,0.0,0.0,0.0
26/07/2022,02:21:52,0.000,0.0,0.0,0.0
26/07/2022,02:22:53,0.001,0.0,0.0,0.0
26/07/2022,02:23:52,0.001,0.0,0.0,0.0
26/07/2022,02:24:53,0.001,0.0,0.0,0.0
26/07/2022,02:25:53,0.000,0.0,0.0,0.0
26/07/2022,02:27:18,0.000,0.0,0.0,0.0
26/07/2022,02:28:52,0.001,0.0,0.0,0.0
26/07/2022,02:30:01,0.001,0.0,0.0,0.0
26/07/2022,02:30:52,0.001,0.0,0.0,0.0
26/07/2022,02:31:52,0.001,0.0,0.0,0.0
26/07/2022,02:33:01,0.001,0.0,0.0,0.0
26/07/2022,02:33:53,0.001,0.0,0.0,0.0
26/07/2022,02:34:52,0.000,0.0,0.0,0.0
26/07/2022,02:35:52,0.001,0.0,0.0,0.0
26/07/2022,02:36:53,0.001,0.0,0.0,0.0
26/07/2022,02:37:54,0.002,0.0,0.0,0.0
26/07/2022,02:38:52,0.001,0.0,0.0,0.0
26/07/2022,02:39:53,0.000,0.0,0.0,0.0
26/07/2022,02:40:53,0.001,0.0,0.0,0.0
26/07/2022,02:41:53,0.001,0.0,0.0,0.0
26/07/2022,02:42:52,0.000,0.0,0.0,0.0
26/07/2022,02:43:53,0.000,0.0,0.0,0.0
26/07/2022,02:44:52,0.001,0.0,0.0,0.0
26/07/2022,02:45:53,0.001,0.0,0.0,0.0
26/07/2022,02:46:52,0.001,0.0,0.0,0.0
26/07/2022,02:47:52,0.002,0.0,0.0,0.0
26/07/2022,02:48:53,0.001,0.0,0.0,0.0
26/07/2022,02:49:53,0.000,0.0,0.0,0.0
26/07/2022,02:51:01,0.000,0.0,0.0,0.0
26/07/2022,02:51:52,0.001,0.0,0.0,0.0
26/07/2022,02:52:53,0.001,0.0,0.0,0.0
26/07/2022,02:54:01,0.001,0.0,0.0,0.0
26/07/2022,02:54:52,0.001,0.0,0.0,0.0
26/07/2022,02:55:53,0.001,0.0,0.0,0.0
26/07/2022,02:56:52,0.001,0.0,0.0,0.0
26/07/2022,02:57:54,0.000,0.0,0.0,0.0
26/07/2022,02:58:52,0.000,0.0,0.0,0.0
26/07/2022,02:59:52,0.001,0.0,0.0,0.0
26/07/2022,03:00:52,0.001,0.0,0.0,0.0
26/07/2022,03:01:54,0.000,0.0,0.0,0.0
26/07/2022,03:02:53,0.001,0.0,0.0,0.0
26/07/2022,03:03:53,0.001,0.0,0.0,0.0
26/07/2022,03:04:52,0.001,0.0,0.0,0.0
26/07/2022,03:05:52,0.001,0.0,0.0,0.0
26/07/2022,03:06:53,0.001,0.0,0.0,0.0
26/07/2022,03:07:53,0.001,0.0,0.0,0.0
26/07/2022,03:08:53,0.001,0.0,0.0,0.0
26/07/2022,03:09:52,0.001,0.0,0.0,0.0
26/07/2022,03:10:52,0.000,0.0,0.0,0.0
26/07/2022,03:11:53,0.000,0.0,0.0,0.0
26/07/2022,03:12:53,0.001,0.0,0.0,0.0
26/07/2022,03:13:53,0.001,0.0,0.0,0.0
26/07/2022,03:15:01,0.000,0.0,0.0,0.0
26/07/2022,03:15:53,-0.000,0.0,0.0,0.0
26/07/2022,03:16:52,0.001,0.0,0.0,0.0
26/07/2022,03:17:52,0.000,0.0,0.0,0.0
26/07/2022,03:18:52,0.001,0.0,0.0,0.0
26/07/2022,03:19:53,0.001,0.0,0.0,0.0
26/07/2022,03:20:52,0.001,0.0,0.0,0.0
26/07/2022,03:21:52,0.000,0.0,0.0,0.0
26/07/2022,03:23:05,0.001,0.0,0.0,0.0
26/07/2022,03:24:53,0.001,0.0,0.0,0.0
26/07/2022,03:25:54,0.001,0.0,0.0,0.0
26/07/2022,03:26:54,0.001,0.0,0.0,0.0
26/07/2022,03:28:01,0.001,0.0,0.0,0.0
26/07/2022,03:28:53,0.001,0.0,0.0,0.0
26/07/2022,03:30:13,0.001,0.0,0.0,0.0
26/07/2022,03:31:53,0.001,0.0,0.0,0.0
26/07/2022,03:32:53,0.001,0.0,0.0,0.0
26/07/2022,03:33:54,0.001,0.0,0.0,0.0
26/07/2022,03:34:52,0.000,0.0,0.0,0.0
26/07/2022,03:35:52,0.001,0.0,0.0,0.0
26/07/2022,03:36:53,0.000,0.0,0.0,0.0
26/07/2022,03:37:52,0.001,0.0,0.0,0.0
26/07/2022,03:39:01,0.001,0.0,0.0,0.0
26/07/2022,03:39:55,0.000,0.0,0.0,0.0
26/07/2022,03:40:52,0.001,0.0,0.0,0.0
26/07/2022,03:41:53,0.001,0.0,0.0,0.0
26/07/2022,03:42:44,0.001,0.0,0.0,0.0
26/07/2022,03:43:53,0.001,0.0,0.0,0.0
26/07/2022,03:44:53,0.000,0.0,0.0,0.0
26/07/2022,03:45:53,0.001,0.0,0.0,0.0
26/07/2022,03:46:52,0.000,0.0,0.0,0.0
26/07/2022,03:47:52,0.001,0.0,0.0,0.0
26/07/2022,03:48:53,0.001,0.0,0.0,0.0
26/07/2022,03:49:52,0.000,0.0,0.0,0.0
26/07/2022,03:50:53,0.001,0.0,0.0,0.0
26/07/2022,03:52:17,0.001,0.0,0.0,0.0
26/07/2022,03:53:53,0.001,0.0,0.0,0.0
26/07/2022,03:54:53,0.001,0.0,0.0,0.0
26/07/2022,03:55:52,0.000,0.0,0.0,0.0
26/07/2022,03:56:54,0.001,0.0,0.0,0.0
26/07/2022,03:57:53,0.001,0.0,0.0,0.0
26/07/2022,03:58:52,0.000,0.0,0.0,0.0
26/07/2022,03:59:53,0.001,0.0,0.0,0.0
26/07/2022,04:00:53,0.001,0.0,0.0,0.0
26/07/2022,04:01:53,0.000,0.0,0.0,0.0
26/07/2022,04:02:53,0.000,0.0,0.0,0.0
26/07/2022,04:03:53,0.000,0.0,0.0,0.0
26/07/2022,04:04:52,0.001,0.0,0.0,0.0
26/07/2022,04:06:01,0.002,0.0,0.0,0.0
26/07/2022,04:06:53,0.001,0.0,0.0,0.0
26/07/2022,04:07:53,0.002,0.0,0.0,0.0
26/07/2022,04:08:54,0.001,0.0,0.0,0.0
26/07/2022,04:09:53,0.001,0.0,0.0,0.0
26/07/2022,04:10:52,0.001,0.0,0.0,0.0
26/07/2022,04:12:03,0.000,0.0,0.0,0.0
26/07/2022,04:12:52,0.002,0.0,0.0,0.0
26/07/2022,04:13:54,0.001,0.0,0.0,0.0
26/07/2022,04:14:53,0.001,0.0,0.0,0.0
26/07/2022,04:15:53,0.000,0.0,0.0,0.0
26/07/2022,04:16:52,0.000,0.0,0.0,0.0
26/07/2022,04:17:52,0.001,0.0,0.0,0.0
26/07/2022,04:18:53,0.001,0.0,0.0,0.0
26/07/2022,04:19:52,0.001,0.0,0.0,0.0
26/07/2022,04:20:53,0.001,0.0,0.0,0.0
26/07/2022,04:21:52,0.001,0.0,0.0,0.0
26/07/2022,04:22:53,0.001,0.0,0.0,0.0
26/07/2022,04:23:53,0.001,0.0,0.0,0.0
26/07/2022,04:24:53,0.001,0.0,0.0,0.0
26/07/2022,04:25:53,0.001,0.0,0.0,0.0
26/07/2022,04:26:53,0.002,0.0,0.0,0.0
26/07/2022,04:28:01,0.001,0.0,0.0,0.0
26/07/2022,04:28:52,0.002,0.0,0.0,0.0
26/07/2022,04:30:01,0.003,0.0,0.0,0.0
26/07/2022,04:30:52,0.002,0.0,0.0,0.0
26/07/2022,04:31:52,0.003,0.0,0.0,0.0
26/07/2022,04:32:53,0.002,0.0,0.0,0.0
26/07/2022,04:33:53,0.002,0.0,0.0,0.0
26/07/2022,04:34:52,0.002,0.0,0.0,0.0
26/07/2022,04:36:00,0.002,0.0,0.0,0.0
26/07/2022,04:36:52,0.004,0.0,0.0,0.0
26/07/2022,04:37:52,0.003,0.0,0.0,0.0
26/07/2022,04:38:53,0.002,0.0,0.0,0.0
26/07/2022,04:39:52,0.004,0.0,0.0,0.0
26/07/2022,04:40:53,0.003,0.0,0.0,0.0
26/07/2022,04:41:52,0.003,0.0,0.0,0.0
26/07/2022,04:42:52,0.003,0.0,0.0,0.0
26/07/2022,04:43:53,0.004,0.0,0.0,0.0
26/07/2022,04:44:52,0.004,0.0,0.0,0.0
26/07/2022,04:45:52,0.004,0.0,0.0,0.0
26/07/2022,04:46:53,0.004,0.0,0.0,0.0
26/07/2022,04:47:53,0.004,0.0,0.0,0.0
26/07/2022,04:49:01,0.004,0.0,0.0,0.0
26/07/2022,04:49:54,0.004,0.0,0.0,0.0
26/07/2022,04:50:53,0.004,0.0,0.0,0.0
26/07/2022,04:52:06,0.004,0.0,0.0,0.0
26/07/2022,04:53:53,0.006,0.0,0.0,0.0
26/07/2022,04:54:52,0.007,0.0,0.0,0.0
26/07/2022,04:55:53,0.007,0.0,0.0,0.0
26/07/2022,04:56:53,0.006,0.0,0.0,0.0
26/07/2022,04:57:53,0.006,0.0,0.0,0.0
26/07/2022,04:58:53,0.007,0.0,0.001,0.001
26/07/2022,04:59:53,0.007,0.0,0.001,0.0
26/07/2022,05:00:53,0.007,0.0,0.001,0.0
26/07/2022,05:01:53,0.006,0.0,0.001,0.0
26/07/2022,05:02:53,0.007,0.0,0.001,0.0
26/07/2022,05:03:52,0.008,0.0,0.001,0.0
26/07/2022,05:04:53,0.007,0.0,0.001,0.0
26/07/2022,05:05:52,0.006,0.0,0.001,0.0
26/07/2022,05:07:01,0.007,0.0,0.001,0.0
26/07/2022,05:07:52,0.007,0.0,0.002,0.001
26/07/2022,05:08:54,0.006,0.0,0.002,0.0
26/07/2022,05:10:09,0.006,0.0,0.002,0.0
26/07/2022,05:11:53,0.007,0.0,0.002,0.0
26/07/2022,05:13:09,0.006,0.0,0.002,0.0
26/07/2022,05:14:53,0.007,0.0,0.002,0.0
26/07/2022,05:16:01,0.007,0.0,0.002,0.0
26/07/2022,05:16:53,0.008,0.0,0.002,0.0
26/07/2022,05:17:53,0.008,0.0,0.003,0.001
26/07/2022,05:19:01,0.007,0.0,0.003,0.0
26/07/2022,05:19:53,0.009,0.0,0.003,0.0
26/07/2022,05:20:53,0.009,0.0,0.003,0.0
26/07/2022,05:21:54,0.009,0.0,0.003,0.0
26/07/2022,05:22:52,0.010,0.0,0.003,0.0
26/07/2022,05:23:55,0.010,0.0,0.003,0.0
26/07/2022,05:24:53,0.010,0.0,0.004,0.001
26/07/2022,05:25:52,0.010,0.0,0.004,0.0
26/07/2022,05:26:53,0.011,0.0,0.004,0.0
26/07/2022,05:27:53,0.011,0.0,0.004,0.0
26/07/2022,05:28:53,0.011,0.0,0.004,0.0
26/07/2022,05:30:10,0.011,0.0,0.005,0.001
26/07/2022,05:31:53,0.011,0.0,0.005,0.0
26/07/2022,05:32:53,0.011,0.0,0.005,0.0
26/07/2022,05:34:01,0.013,0.0,0.005,0.0
26/07/2022,05:34:52,0.014,0.0,0.006,0.001
26/07/2022,05:35:52,0.014,0.0,0.006,0.0
26/07/2022,05:37:01,0.015,0.0,0.006,0.0
26/07/2022,05:37:53,0.016,0.0,0.006,0.0
26/07/2022,05:38:53,0.017,0.0,0.007,0.001
26/07/2022,05:40:01,0.017,0.0,0.007,0.0
26/07/2022,05:40:53,0.018,0.0,0.007,0.0
26/07/2022,05:41:52,0.018,0.0,0.007,0.0
26/07/2022,05:42:53,0.018,0.0,0.008,0.001
26/07/2022,05:43:53,0.019,0.0,0.008,0.0
26/07/2022,05:44:52,0.019,0.0,0.008,0.0
26/07/2022,05:45:54,0.018,0.0,0.009,0.001
26/07/2022,05:46:52,0.018,0.0,0.009,0.0
26/07/2022,05:47:52,0.019,0.0,0.009,0.0
26/07/2022,05:48:53,0.020,0.0,0.01,0.001
26/07/2022,05:49:53,0.020,0.0,0.01,0.0
26/07/2022,05:50:53,0.021,0.0,0.01,0.0
26/07/2022,05:51:53,0.021,0.0,0.011,0.001
26/07/2022,05:53:01,0.024,0.0,0.011,0.0
26/07/2022,05:53:52,0.025,0.0,0.011,0.0
26/07/2022,05:55:01,0.025,0.0,0.012,0.001
26/07/2022,05:55:52,0.026,0.0,0.012,0.0
26/07/2022,05:56:53,0.027,0.0,0.013,0.001
26/07/2022,05:57:53,0.028,0.0,0.013,0.0
26/07/2022,05:58:53,0.030,0.0,0.014,0.001
26/07/2022,05:59:53,0.030,0.0,0.014,0.0
26/07/2022,06:00:53,0.031,0.0,0.015,0.001
26/07/2022,06:01:53,0.032,0.0,0.015,0.0
26/07/2022,06:02:53,0.032,0.0,0.016,0.001
26/07/2022,06:03:53,0.032,0.0,0.016,0.0
26/07/2022,06:04:53,0.032,0.0,0.017,0.001
26/07/2022,06:05:53,0.033,0.0,0.017,0.0
26/07/2022,06:06:53,0.033,0.0,0.018,0.001
26/07/2022,06:08:01,0.033,0.0,0.019,0.001
26/07/2022,06:08:53,0.033,0.0,0.019,0.0
26/07/2022,06:09:53,0.033,0.0,0.02,0.001
26/07/2022,06:10:53,0.035,0.0,0.02,0.0
26/07/2022,06:11:53,0.035,0.0,0.021,0.001
26/07/2022,06:12:53,0.037,0.0,0.021,0.0
26/07/2022,06:14:01,0.036,0.0,0.022,0.001
26/07/2022,06:14:54,0.037,0.0,0.023,0.001
26/07/2022,06:15:53,0.034,0.0,0.023,0.0
26/07/2022,06:16:53,0.035,0.0,0.024,0.001
26/07/2022,06:18:02,0.033,0.0,0.024,0.0
26/07/2022,06:18:53,0.033,0.0,0.025,0.001
26/07/2022,06:19:53,0.031,0.0,0.025,0.0
26/07/2022,06:20:52,0.033,0.0,0.026,0.001
26/07/2022,06:21:53,0.034,0.0,0.026,0.0
26/07/2022,06:22:53,0.036,0.0,0.027,0.001
26/07/2022,06:23:53,0.037,0.0,0.028,0.001
26/07/2022,06:24:53,0.038,0.0,0.028,0.0
26/07/2022,06:25:53,0.039,0.0,0.029,0.001
26/07/2022,06:26:53,0.041,0.0,0.03,0.001
26/07/2022,06:27:52,0.041,0.0,0.03,0.0
26/07/2022,06:29:01,0.042,0.0,0.031,0.001
26/07/2022,06:29:53,0.044,0.0,0.032,0.001
26/07/2022,06:30:52,0.045,0.0,0.032,0.0
26/07/2022,06:32:01,0.046,0.0,0.033,0.001
26/07/2022,06:32:53,0.046,0.0,0.034,0.001
26/07/2022,06:33:52,0.047,0.0,0.035,0.001
26/07/2022,06:34:53,0.049,0.0,0.035,0.0
26/07/2022,06:35:53,0.049,0.0,0.036,0.001
26/07/2022,06:36:53,0.051,0.0,0.037,0.001
26/07/2022,06:37:53,0.054,0.0,0.038,0.001
26/07/2022,06:38:53,0.055,0.0,0.039,0.001
26/07/2022,06:39:54,0.057,0.0,0.04,0.001
26/07/2022,06:40:53,0.060,0.0,0.041,0.001
26/07/2022,06:41:53,0.062,0.0,0.042,0.001
26/07/2022,06:42:53,0.063,0.0,0.043,0.001
26/07/2022,06:43:54,0.064,0.0,0.044,0.001
26/07/2022,06:44:53,0.065,0.0,0.045,0.001
26/07/2022,06:45:53,0.066,0.0,0.046,0.001
26/07/2022,06:46:53,0.067,0.0,0.047,0.001
26/07/2022,06:47:53,0.068,0.0,0.048,0.001
26/07/2022,06:48:53,0.067,0.0,0.049,0.001
26/07/2022,06:49:55,0.068,0.0,0.051,0.002
26/07/2022,06:50:52,0.068,0.0,0.052,0.001
26/07/2022,06:51:53,0.067,0.0,0.053,0.001
26/07/2022,06:53:01,0.067,0.0,0.054,0.001
26/07/2022,06:53:52,0.067,0.0,0.055,0.001
26/07/2022,06:54:53,0.067,0.0,0.056,0.001
26/07/2022,06:55:53,0.067,0.0,0.057,0.001
26/07/2022,06:56:53,0.065,0.0,0.058,0.001
26/07/2022,06:57:53,0.063,0.0,0.059,0.001
26/07/2022,06:58:53,0.059,0.0,0.06,0.001
26/07/2022,06:59:53,0.056,0.0,0.061,0.001
26/07/2022,07:00:53,0.057,0.0,0.062,0.001
26/07/2022,07:01:53,0.059,0.0,0.063,0.001
26/07/2022,07:02:53,0.059,0.0,0.064,0.001
26/07/2022,07:03:53,0.062,0.0,0.065,0.001
26/07/2022,07:04:53,0.066,0.0,0.066,0.001
26/07/2022,07:06:01,0.069,0.0,0.068,0.002
26/07/2022,07:06:53,0.070,0.0,0.069,0.001
26/07/2022,07:07:53,0.071,0.0,0.07,0.001
26/07/2022,07:09:01,0.073,0.0,0.071,0.001
26/07/2022,07:09:53,0.075,0.0,0.072,0.001
26/07/2022,07:10:55,0.078,0.0,0.074,0.002
26/07/2022,07:11:53,0.080,0.0,0.075,0.001
26/07/2022,07:12:53,0.080,0.0,0.076,0.001
26/07/2022,07:13:53,0.080,0.0,0.078,0.002
26/07/2022,07:15:02,0.080,0.0,0.079,0.001
26/07/2022,07:15:52,0.080,0.0,0.08,0.001
26/07/2022,07:16:53,0.084,0.0,0.082,0.002
26/07/2022,07:18:01,0.086,0.0,0.083,0.001
26/07/2022,07:18:53,0.088,0.0,0.084,0.001
26/07/2022,07:19:53,0.092,0.0,0.086,0.002
26/07/2022,07:20:53,0.098,0.0,0.088,0.002
26/07/2022,07:21:53,0.105,0.0,0.089,0.001
26/07/2022,07:22:53,0.113,0.0,0.091,0.002
26/07/2022,07:23:53,0.119,0.0,0.093,0.002
26/07/2022,07:24:53,0.125,0.0,0.095,0.002
26/07/2022,07:25:53,0.133,0.0,0.097,0.002
26/07/2022,07:26:53,0.142,0.0,0.099,0.002
26/07/2022,07:27:53,0.150,0.0,0.102,0.003
26/07/2022,07:28:52,0.157,0.0,0.104,0.002
26/07/2022,07:29:53,0.164,0.0,0.107,0.003
26/07/2022,07:30:53,0.165,0.0,0.11,0.003
26/07/2022,07:31:53,0.164,0.0,0.113,0.003
26/07/2022,07:33:01,0.162,0.0,0.116,0.003
26/07/2022,07:33:53,0.160,0.0,0.118,0.002
26/07/2022,07:34:53,0.157,0.0,0.121,0.003
26/07/2022,07:36:02,0.153,0.0,0.124,0.003
26/07/2022,07:36:53,0.151,0.0,0.126,0.002
26/07/2022,07:37:53,0.152,0.0,0.128,0.002
26/07/2022,07:39:01,0.153,0.0,0.131,0.003
26/07/2022,07:39:53,0.150,0.0,0.133,0.002
26/07/2022,07:40:53,0.148,0.0,0.136,0.003
26/07/2022,07:41:53,0.147,0.0,0.138,0.002
26/07/2022,07:42:53,0.143,0.0,0.141,0.003
26/07/2022,07:43:53,0.139,0.0,0.143,0.002
26/07/2022,07:44:53,0.135,0.0,0.145,0.002
26/07/2022,07:45:53,0.132,0.0,0.148,0.003
26/07/2022,07:46:53,0.131,0.0,0.15,0.002
26/07/2022,07:47:53,0.131,0.0,0.152,0.002
26/07/2022,07:48:53,0.133,0.0,0.154,0.002
26/07/2022,07:49:54,0.135,0.0,0.156,0.002
26/07/2022,07:50:53,0.139,0.0,0.159,0.003
26/07/2022,07:52:01,0.142,0.0,0.161,0.002
26/07/2022,07:52:53,0.147,0.0,0.163,0.002
26/07/2022,07:53:53,0.152,0.0,0.166,0.003
26/07/2022,07:54:53,0.160,0.0,0.169,0.003
26/07/2022,07:55:53,0.172,0.0,0.171,0.002
26/07/2022,07:56:53,0.185,0.0,0.174,0.003
26/07/2022,07:57:53,0.196,0.0,0.177,0.003
26/07/2022,07:58:53,0.204,0.0,0.181,0.004
26/07/2022,07:59:53,0.208,0.0,0.184,0.003
26/07/2022,08:00:53,0.201,0.0,0.188,0.004
26/07/2022,08:01:53,0.191,0.0,0.191,0.003
26/07/2022,08:02:53,0.178,0.0,0.194,0.003
26/07/2022,08:03:53,0.164,0.0,0.197,0.003
26/07/2022,08:04:53,0.154,0.0,0.199,0.002
26/07/2022,08:05:53,0.148,0.0,0.202,0.003
26/07/2022,08:07:02,0.147,0.0,0.205,0.003
26/07/2022,08:07:53,0.147,0.0,0.207,0.002
26/07/2022,08:08:53,0.150,0.0,0.209,0.002
26/07/2022,08:10:01,0.157,0.0,0.212,0.003
26/07/2022,08:10:53,0.169,0.0,0.214,0.002
26/07/2022,08:11:53,0.178,0.0,0.217,0.003
26/07/2022,08:13:01,0.185,0.0,0.221,0.004
26/07/2022,08:13:53,0.193,0.0,0.224,0.003
26/07/2022,08:14:53,0.206,0.0,0.227,0.003
26/07/2022,08:15:53,0.223,1.0,0.23,0.003
26/07/2022,08:16:53,0.236,1.0,0.234,0.004
26/07/2022,08:17:53,0.250,1.0,0.238,0.004
26/07/2022,08:18:53,0.261,1.0,0.243,0.005
26/07/2022,08:19:53,0.258,1.0,0.247,0.004
26/07/2022,08:20:53,0.245,1.0,0.251,0.004
26/07/2022,08:21:53,0.234,1.0,0.255,0.004
26/07/2022,08:22:53,0.223,1.0,0.259,0.004
26/07/2022,08:23:53,0.217,0.0,0.263,0.004
26/07/2022,08:24:53,0.222,1.0,0.266,0.003
26/07/2022,08:25:53,0.226,1.0,0.27,0.004
26/07/2022,08:26:53,0.230,1.0,0.274,0.004
26/07/2022,08:28:01,0.232,1.0,0.278,0.004
26/07/2022,08:28:53,0.230,1.0,0.282,0.004
26/07/2022,08:29:54,0.231,1.0,0.285,0.003
26/07/2022,08:30:53,0.234,1.0,0.289,0.004
26/07/2022,08:31:53,0.229,1.0,0.293,0.004
26/07/2022,08:32:54,0.225,1.0,0.297,0.004
26/07/2022,08:33:53,0.222,1.0,0.301,0.004
26/07/2022,08:34:53,0.225,1.0,0.304,0.003
26/07/2022,08:35:53,0.224,1.0,0.308,0.004
26/07/2022,08:36:53,0.223,1.0,0.312,0.004
26/07/2022,08:37:53,0.225,1.0,0.315,0.003
26/07/2022,08:38:53,0.223,1.0,0.319,0.004
26/07/2022,08:39:54,0.223,1.0,0.323,0.004
26/07/2022,08:40:53,0.226,1.0,0.327,0.004
26/07/2022,08:41:53,0.226,1.0,0.331,0.004
26/07/2022,08:42:53,0.226,1.0,0.334,0.003
26/07/2022,08:44:01,0.225,1.0,0.338,0.004
26/07/2022,08:44:53,0.226,1.0,0.342,0.004
26/07/2022,08:45:53,0.230,1.0,0.345,0.003
26/07/2022,08:46:53,0.238,1.0,0.349,0.004
26/07/2022,08:47:53,0.244,1.0,0.353,0.004
26/07/2022,08:48:53,0.251,1.0,0.358,0.005
26/07/2022,08:49:53,0.258,1.0,0.362,0.004
26/07/2022,08:50:53,0.269,1.0,0.366,0.004
26/07/2022,08:51:54,0.270,1.0,0.371,0.005
26/07/2022,08:52:53,0.272,1.0,0.375,0.004
26/07/2022,08:53:53,0.272,1.0,0.38,0.005
26/07/2022,08:55:01,0.275,1.0,0.385,0.005
26/07/2022,08:55:53,0.287,1.0,0.389,0.004
26/07/2022,08:56:53,0.303,1.0,0.394,0.005
26/07/2022,08:57:53,0.316,1.0,0.399,0.005
26/07/2022,08:59:01,0.325,1.0,0.405,0.006
26/07/2022,08:59:53,0.332,1.0,0.41,0.005
26/07/2022,09:00:53,0.324,1.0,0.415,0.005
26/07/2022,09:02:02,0.313,1.0,0.422,0.007
26/07/2022,09:02:53,0.316,1.0,0.426,0.004
26/07/2022,09:03:53,0.324,1.0,0.431,0.005
26/07/2022,09:04:53,0.338,1.0,0.437,0.006
26/07/2022,09:05:53,0.349,1.0,0.443,0.006
26/07/2022,09:06:53,0.353,1.0,0.448,0.005
26/07/2022,09:07:53,0.348,1.0,0.454,0.006
26/07/2022,09:08:53,0.340,1.0,0.46,0.006
26/07/2022,09:09:54,0.323,1.0,0.466,0.006
26/07/2022,09:10:53,0.316,1.0,0.471,0.005
26/07/2022,09:11:53,0.316,1.0,0.476,0.005
26/07/2022,09:12:53,0.323,1.0,0.481,0.005
26/07/2022,09:13:53,0.335,1.0,0.487,0.006
26/07/2022,09:14:53,0.336,1.0,0.492,0.005
26/07/2022,09:15:53,0.350,1.0,0.498,0.006
26/07/2022,09:16:54,0.360,1.0,0.504,0.006
26/07/2022,09:17:53,0.360,1.0,0.51,0.006
26/07/2022,09:18:53,0.367,1.0,0.516,0.006
26/07/2022,09:20:02,0.363,1.0,0.523,0.007
26/07/2022,09:20:53,0.359,1.0,0.528,0.005
26/07/2022,09:21:53,0.352,1.0,0.534,0.006
26/07/2022,09:22:53,0.346,1.0,0.54,0.006
26/07/2022,09:23:53,0.342,1.0,0.546,0.006
26/07/2022,09:24:54,0.339,1.0,0.551,0.005
26/07/2022,09:25:53,0.344,1.0,0.557,0.006
26/07/2022,09:26:53,0.355,1.0,0.563,0.006
26/07/2022,09:27:54,0.368,1.0,0.569,0.006
26/07/2022,09:28:53,0.372,1.0,0.575,0.006
26/07/2022,09:29:53,0.367,1.0,0.581,0.006
26/07/2022,09:30:53,0.360,1.0,0.587,0.006
26/07/2022,09:31:53,0.353,1.0,0.593,0.006
26/07/2022,09:33:02,0.335,1.0,0.6,0.007
26/07/2022,09:33:53,0.320,1.0,0.605,0.005
26/07/2022,09:35:02,0.315,1.0,0.611,0.006
26/07/2022,09:35:52,0.321,1.0,0.615,0.004
26/07/2022,09:36:53,0.331,1.0,0.62,0.005
26/07/2022,09:37:53,0.344,1.0,0.626,0.006
26/07/2022,09:38:53,0.363,1.0,0.632,0.006
26/07/2022,09:39:53,0.382,1.0,0.638,0.006
26/07/2022,09:40:54,0.405,1.0,0.645,0.007
26/07/2022,09:41:53,0.441,1.0,0.652,0.007
26/07/2022,09:42:53,0.453,1.0,0.659,0.007
26/07/2022,09:43:54,0.493,1.0,0.667,0.008
26/07/2022,09:44:53,0.520,1.0,0.675,0.008
26/07/2022,09:45:54,0.503,1.0,0.684,0.009
26/07/2022,09:46:55,0.496,1.0,0.693,0.009
26/07/2022,09:47:54,0.525,1.0,0.701,0.008
26/07/2022,09:48:53,0.557,1.0,0.71,0.009
26/07/2022,09:49:53,0.554,1.0,0.719,0.009
26/07/2022,09:50:54,0.558,1.0,0.729,0.01
26/07/2022,09:51:53,0.572,1.0,0.738,0.009
26/07/2022,09:52:53,0.587,1.0,0.747,0.009
26/07/2022,09:54:02,0.571,1.0,0.759,0.012
26/07/2022,09:54:53,0.547,1.0,0.767,0.008
26/07/2022,09:55:53,0.522,1.0,0.776,0.009
26/07/2022,09:56:53,0.514,1.0,0.784,0.008
26/07/2022,09:57:53,0.526,1.0,0.793,0.009
26/07/2022,09:58:53,0.550,1.0,0.802,0.009
26/07/2022,09:59:53,0.579,1.0,0.811,0.009
26/07/2022,10:00:54,0.607,1.0,0.821,0.01
26/07/2022,10:01:53,0.635,1.0,0.831,0.01
26/07/2022,10:02:53,0.662,2.0,0.842,0.011
26/07/2022,10:03:54,0.676,2.0,0.854,0.012
26/07/2022,10:04:54,0.686,2.0,0.865,0.011
26/07/2022,10:06:02,0.688,2.0,0.878,0.013
26/07/2022,10:06:53,0.686,2.0,0.888,0.01
26/07/2022,10:07:53,0.677,2.0,0.899,0.011
26/07/2022,10:08:53,0.674,2.0,0.91,0.011
26/07/2022,10:09:53,0.678,2.0,0.922,0.012
26/07/2022,10:11:01,0.677,2.0,0.935,0.013
26/07/2022,10:12:02,0.682,2.0,0.946,0.011
26/07/2022,10:12:53,0.691,2.0,0.956,0.01
26/07/2022,10:13:53,0.705,2.0,0.968,0.012
26/07/2022,10:14:53,0.724,2.0,0.979,0.011
26/07/2022,10:15:53,0.740,2.0,0.991,0.012
26/07/2022,10:16:54,0.748,2.0,1.004,0.013
26/07/2022,10:17:53,0.745,2.0,1.017,0.013